N5GMJ Weather Reports


Display with metric or nautical units.
time (UTC)temp
F
wind
direction
speed
MPH
gust
MPH
rain 1hr
in
rain 24hr
in
rain mn
in
humidity
%
barometer
mb
20260906223631 98 191 5.0 11.0 0.00 0.00 0.00 38 1012.3
20260906223130 99 127 3.0 9.0 0.00 0.00 0.00 37 1012.3
20260906222629 99 113 8.0 10.0 0.00 0.00 0.00 37 1012.2
20260906222128 99 106 5.0 11.0 0.00 0.00 0.00 38 1012.4
20260906221627 99 138 6.0 8.0 0.00 0.00 0.00 38 1012.3
20260906221121 99 115 5.0 8.0 0.00 0.00 0.00 37 1012.4
20260906220616 99 153 3.0 7.0 0.00 0.00 0.00 38 1012.4
20260906220112 99 137 4.0 8.0 0.00 0.00 0.00 36 1012.4
20260906215611 100 100 6.0 9.0 0.00 0.00 0.00 37 1012.5
20260906215109 98 94 5.0 7.0 0.00 0.00 0.00 37 1012.5
20260906214608 97 181 2.0 11.0 0.00 0.00 0.00 39 1012.5
20260906214103 99 101 3.0 7.0 0.00 0.00 0.00 37 1012.7
20260906213602 99 158 7.0 10.0 0.00 0.00 0.00 38 1012.7
20260906213056 99 88 9.0 13.0 0.00 0.00 0.00 37 1012.8
20260906212543 100 117 4.0 9.0 0.00 0.00 0.00 37 1012.7
20260906212040 98 131 6.0 9.0 0.00 0.00 0.00 39 1012.8
20260906211539 99 177 5.0 7.0 0.00 0.00 0.00 38 1012.8
20260906211034 100 145 4.0 8.0 0.00 0.00 0.00 38 1013.1
20260906210530 100 132 2.0 9.0 0.00 0.00 0.00 37 1013.3
20260906210030 99 127 7.0 8.0 0.00 0.00 0.00 39 1013.3
20260906205525 99 133 6.0 14.0 0.00 0.00 0.00 40 1013.2
20260906205021 98 84 4.0 8.0 0.00 0.00 0.00 39 1013.5
20260906204520 101 128 8.0 10.0 0.00 0.00 0.00 38 1013.2
20260906204015 100 88 4.0 8.0 0.00 0.00 0.00 38 1013.3
20260906203510 100 90 2.0 11.0 0.00 0.00 0.00 39 1013.5
20260906203010 99 311 1.0 4.0 0.00 0.00 0.00 38 1013.6
20260906202506 98 72 6.0 10.0 0.00 0.00 0.00 40 1013.6
20260906202001 101 160 9.0 13.0 0.00 0.00 0.00 38 1013.6
20260906201456 100 62 2.0 7.0 0.00 0.00 0.00 38 1013.6
20260906200956 100 130 10.0 11.0 0.00 0.00 0.00 40 1013.5
20260906200452 99 144 4.0 9.0 0.00 0.00 0.00 40 1013.7
20260906195952 98 113 4.0 7.0 0.00 0.00 0.00 40 1013.8
20260906195448 99 94 0.0 3.0 0.00 0.00 0.00 40 1013.9
20260906194944 98 156 5.0 9.0 0.00 0.00 0.00 41 1013.8
20260906194440 100 122 7.0 9.0 0.00 0.00 0.00 38 1013.8
20260906193935 97 136 6.0 13.0 0.00 0.00 0.00 41 1013.8
20260906193430 98 98 2.0 8.0 0.00 0.00 0.00 41 1013.9
20260906192926 98 75 4.0 8.0 0.00 0.00 0.00 41 1013.8
20260906192426 98 128 8.0 10.0 0.00 0.00 0.00 41 1014.1
20260906191925 98 75 8.0 11.0 0.00 0.00 0.00 41 1014.2
20260906191420 97 130 4.0 9.0 0.00 0.00 0.00 42 1014.3
20260906190919 97 93 0.0 4.0 0.00 0.00 0.00 42 1014.2
20260906190418 97 85 8.0 11.0 0.00 0.00 0.00 42 1014.3
20260906185919 97 152 7.0 14.0 0.00 0.00 0.00 42 1014.3
20260906185418 98 135 5.0 7.0 0.00 0.00 0.00 41 1014.4
20260906184917 97 129 3.0 10.0 0.00 0.00 0.00 43 1014.4
20260906184412 97 109 3.0 18.0 0.00 0.00 0.00 42 1014.7
20260906183908 96 145 11.0 15.0 0.00 0.00 0.00 43 1014.4
20260906183404 96 146 5.0 8.0 0.00 0.00 0.00 42 1014.7
20260906182859 97 143 6.0 13.0 0.00 0.00 0.00 42 1014.6
20260906182354 97 94 4.0 13.0 0.00 0.00 0.00 40 1014.7
20260906181849 96 119 4.0 7.0 0.00 0.00 0.00 43 1014.9
20260906181346 97 126 2.0 9.0 0.00 0.00 0.00 42 1014.9
20260906180841 97 100 3.0 8.0 0.00 0.00 0.00 42 1015.0
20260906180336 96 154 4.0 11.0 0.00 0.00 0.00 43 1015.0
20260906175833 96 124 5.0 8.0 0.00 0.00 0.00 42 1015.1
20260906175329 95 110 2.0 9.0 0.00 0.00 0.00 44 1015.3
20260906174828 96 129 11.0 13.0 0.00 0.00 0.00 44 1015.4
20260906174327 96 121 7.0 11.0 0.00 0.00 0.00 43 1015.6
20260906173822 95 165 5.0 13.0 0.00 0.00 0.00 45 1015.6
20260906173318 95 80 6.0 13.0 0.00 0.00 0.00 44 1015.7
20260906172817 95 151 8.0 10.0 0.00 0.00 0.00 44 1015.8
20260906172314 94 159 4.0 10.0 0.00 0.00 0.00 46 1015.9
20260906171814 96 93 4.0 8.0 0.00 0.00 0.00 44 1015.9
20260906171308 95 118 2.0 6.0 0.00 0.00 0.00 46 1016.0
20260906170804 94 175 3.0 8.0 0.00 0.00 0.00 48 1016.1
20260906170300 93 38 1.0 9.0 0.00 0.00 0.00 49 1016.1
20260906165756 95 144 5.0 11.0 0.00 0.00 0.00 49 1016.0
20260906165256 95 124 7.0 10.0 0.00 0.00 0.00 48 1016.2
20260906164756 94 79 3.0 7.0 0.00 0.00 0.00 45 1016.2
20260906164256 95 132 4.0 9.0 0.00 0.00 0.00 45 1016.1
20260906163752 94 148 3.0 8.0 0.00 0.00 0.00 48 1016.2
20260906163248 94 146 8.0 10.0 0.00 0.00 0.00 46 1016.2
20260906162745 95 145 8.0 9.0 0.00 0.00 0.00 47 1016.2
20260906162240 94 28 1.0 6.0 0.00 0.00 0.00 47 1016.2
20260906161739 93 146 6.0 7.0 0.00 0.00 0.00 50 1016.2
20260906161239 92 159 2.0 11.0 0.00 0.00 0.00 52 1016.4
20260906160738 92 142 4.0 8.0 0.00 0.00 0.00 51 1016.1
20260906160237 91 143 5.0 7.0 0.00 0.00 0.00 55 1016.1
20260906155735 92 119 2.0 6.0 0.00 0.00 0.00 55 1016.3
20260906155230 91 92 3.0 4.0 0.00 0.00 0.00 56 1016.3
20260906154726 91 149 4.0 4.0 0.00 0.00 0.00 57 1016.3
20260906154221 91 151 6.0 7.0 0.00 0.00 0.00 56 1016.4
20260906153719 91 128 3.0 7.0 0.00 0.00 0.00 58 1016.3
20260906153214 92 129 0.0 3.0 0.00 0.00 0.00 55 1016.1
20260906152709 90 111 2.0 2.0 0.00 0.00 0.00 57 1016.1
20260906152209 90 68 3.0 7.0 0.00 0.00 0.00 59 1016.0
20260906151703 91 123 3.0 6.0 0.00 0.00 0.00 59 1016.0
20260906151159 90 116 1.0 3.0 0.00 0.00 0.00 59 1016.0
20260906150654 89 106 0.0 2.0 0.00 0.00 0.00 61 1015.9
20260906150149 88 99 2.0 3.0 0.00 0.00 0.00 62 1015.8
20260906145649 88 28 2.0 6.0 0.00 0.00 0.00 64 1015.6
20260906145149 89 73 2.0 6.0 0.00 0.00 0.00 64 1015.7
20260906144648 88 130 2.0 4.0 0.00 0.00 0.00 64 1015.7
20260906144143 88 123 0.0 1.0 0.00 0.00 0.00 64 1015.7
20260906143643 87 100 0.0 3.0 0.00 0.00 0.00 67 1015.8
20260906143140 86 143 1.0 2.0 0.00 0.00 0.00 68 1015.7
20260906142639 86 81 0.0 3.0 0.00 0.00 0.00 67 1015.8
20260906142135 85 123 1.0 2.0 0.00 0.00 0.00 69 1015.8
20260906141633 85 133 2.0 3.0 0.00 0.00 0.00 70 1016.0
20260906141129 85 130 1.0 3.0 0.00 0.00 0.00 71 1015.8
20260906140628 84 68 2.0 3.0 0.00 0.00 0.00 72 1015.8
20260906140123 83 111 4.0 4.0 0.00 0.00 0.00 74 1015.8
20260906135621 83 166 2.0 6.0 0.00 0.00 0.00 74 1015.8
20260906135116 83 123 1.0 3.0 0.00 0.00 0.00 74 1015.9
20260906134612 83 151 4.0 4.0 0.00 0.00 0.00 75 1015.8
20260906134107 82 103 1.0 2.0 0.00 0.00 0.00 75 1015.7
20260906133602 81 144 3.0 4.0 0.00 0.00 0.00 78 1015.9
20260906133057 80 136 2.0 3.0 0.00 0.00 0.00 79 1015.8
20260906132552 80 140 1.0 2.0 0.00 0.00 0.00 80 1015.8
20260906132048 79 144 1.0 2.0 0.00 0.00 0.00 81 1015.4
20260906131543 78 141 1.0 2.0 0.00 0.00 0.00 82 1015.9
20260906131038 78 135 2.0 3.0 0.00 0.00 0.00 83 1015.8
20260906130538 77 125 1.0 2.0 0.00 0.00 0.00 84 1015.9
20260906130033 76 51 0.0 1.0 0.00 0.00 0.00 86 1015.8
20260906125531 74 49 0.0 0.0 0.00 0.00 0.00 89 1015.3
20260906125031 74 49 0.0 0.0 0.00 0.00 0.00 90 1015.4
20260906124526 74 49 0.0 0.0 0.00 0.00 0.00 91 1015.4
20260906124021 74 49 1.0 1.0 0.00 0.00 0.00 91 1015.3
20260906123520 73 51 0.0 0.0 0.00 0.00 0.00 93 1015.3
20260906123016 73 51 0.0 0.0 0.00 0.00 0.00 93 1015.2
20260906122515 73 51 0.0 0.0 0.00 0.00 0.00 93 1015.2
20260906122011 73 51 0.0 0.0 0.00 0.00 0.00 93 1015.2
20260906121507 73 51 0.0 0.0 0.00 0.00 0.00 93 1015.3
20260906121004 73 51 0.0 0.0 0.00 0.00 0.00 93 1015.3
20260906120504 73 51 0.0 0.0 0.00 0.00 0.00 92 1015.1
20260906120001 73 51 0.0 0.0 0.00 0.00 0.00 92 1015.1
20260906115456 73 51 0.0 1.0 0.00 0.00 0.00 91 1014.9
20260906114956 73 9 0.0 0.0 0.00 0.00 0.00 91 1014.8
20260906114450 73 9 0.0 0.0 0.00 0.00 0.00 91 1014.8
20260906113947 73 9 0.0 0.0 0.00 0.00 0.00 91 1014.9
20260906113445 73 9 0.0 0.0 0.00 0.00 0.00 90 1014.8
20260906112941 73 9 0.0 1.0 0.00 0.00 0.00 90 1014.7
20260906112436 74 9 0.0 0.0 0.00 0.00 0.00 90 1014.7
20260906111932 74 9 0.0 0.0 0.00 0.00 0.00 90 1014.6
20260906111431 74 9 0.0 0.0 0.00 0.00 0.00 90 1014.7
20260906110926 74 96 0.0 0.0 0.00 0.00 0.00 90 1014.8
20260906110421 74 98 0.0 0.0 0.00 0.00 0.00 90 1014.6
20260906105920 74 98 0.0 0.0 0.00 0.00 0.00 90 1014.5
20260906105416 74 98 0.0 0.0 0.00 0.00 0.00 89 1014.3
20260906104912 75 98 0.0 0.0 0.00 0.00 0.00 89 1014.4
20260906104410 75 98 0.0 1.0 0.00 0.00 0.00 88 1014.4
20260906103909 75 98 1.0 2.0 0.00 0.00 0.00 87 1014.3
20260906103408 76 339 1.0 1.0 0.00 0.00 0.00 86 1014.3
20260906102904 76 337 0.0 0.0 0.00 0.00 0.00 87 1014.3
20260906102403 75 337 0.0 0.0 0.00 0.00 0.00 87 1014.4
20260906101858 75 336 0.0 0.0 0.00 0.00 0.00 89 1014.4
20260906101353 75 336 0.0 0.0 0.00 0.00 0.00 88 1014.2
20260906100848 75 336 0.0 0.0 0.00 0.00 0.00 88 1014.2
20260906100348 75 336 0.0 0.0 0.00 0.00 0.00 87 1014.2
20260906095843 75 336 0.0 0.0 0.00 0.00 0.00 86 1014.2
20260906095338 76 349 1.0 1.0 0.00 0.00 0.00 86 1014.1
20260906094838 76 114 0.0 0.0 0.00 0.00 0.00 86 1014.3
20260906094333 76 114 0.0 0.0 0.00 0.00 0.00 86 1014.0
20260906093829 76 114 0.0 0.0 0.00 0.00 0.00 85 1014.3
20260906093325 76 114 0.0 0.0 0.00 0.00 0.00 85 1013.9
20260906092820 76 114 0.0 0.0 0.00 0.00 0.00 84 1013.9
20260906092320 76 114 0.0 1.0 0.00 0.00 0.00 84 1013.6
20260906091815 76 114 1.0 1.0 0.00 0.00 0.00 85 1013.8
20260906091311 77 116 2.0 3.0 0.00 0.00 0.00 83 1013.7
20260906090808 76 121 1.0 2.0 0.00 0.00 0.00 85 1013.7
20260906090306 76 296 0.0 0.0 0.00 0.00 0.00 85 1013.5
20260906085807 76 296 0.0 0.0 0.00 0.00 0.00 85 1013.6
20260906085307 76 296 0.0 0.0 0.00 0.00 0.00 84 1013.6
20260906084801 77 296 1.0 2.0 0.00 0.00 0.00 83 1013.7
20260906084300 78 110 0.0 0.0 0.00 0.00 0.00 82 1013.9
20260906083755 78 110 0.0 1.0 0.00 0.00 0.00 82 1013.8
20260906083251 78 110 0.0 0.0 0.00 0.00 0.00 82 1013.6
20260906082745 78 110 0.0 0.0 0.00 0.00 0.00 81 1013.5
20260906082240 78 114 1.0 1.0 0.00 0.00 0.00 81 1013.6
20260906081736 78 126 1.0 2.0 0.00 0.00 0.00 81 1013.4
20260906081231 78 135 2.0 2.0 0.00 0.00 0.00 81 1013.4
20260906080728 78 136 1.0 2.0 0.00 0.00 0.00 80 1013.8
20260906080224 78 139 1.0 2.0 0.00 0.00 0.00 80 1013.6
20260906075724 78 141 1.0 1.0 0.00 0.00 0.00 80 1013.9
20260906075224 79 141 1.0 2.0 0.00 0.00 0.00 79 1013.7
20260906074719 79 128 1.0 3.0 0.00 0.00 0.00 79 1014.1
20260906074218 79 137 1.0 2.0 0.00 0.00 0.00 78 1014.1
20260906073713 79 130 2.0 3.0 0.00 0.00 0.00 78 1014.0
20260906073208 79 137 2.0 2.0 0.00 0.00 0.00 79 1014.2
20260906072704 78 118 0.0 0.0 0.00 0.00 0.00 81 1014.1
20260906072159 78 118 0.0 0.0 0.00 0.00 0.00 80 1014.1
20260906071655 78 118 0.0 0.0 0.00 0.00 0.00 79 1014.0
20260906071154 79 118 0.0 0.0 0.00 0.00 0.00 78 1013.8
20260906070652 80 119 0.0 0.0 0.00 0.00 0.00 77 1013.6
20260906070147 80 119 0.0 0.0 0.00 0.00 0.00 76 1013.8
20260906065646 80 115 0.0 1.0 0.00 0.00 0.00 76 1013.8
20260906065142 80 110 1.0 2.0 0.00 0.00 0.00 76 1014.0
20260906064637 80 142 0.0 1.0 0.00 0.00 0.00 77 1014.2
20260906064132 80 142 0.0 0.0 0.00 0.00 0.00 77 1014.2
20260906063628 80 142 0.0 0.0 0.00 0.00 0.00 76 1014.3
20260906063124 80 143 0.0 0.0 0.00 0.00 0.00 76 1014.1
20260906062619 80 143 0.0 1.0 0.00 0.00 0.00 76 1014.3
20260906062118 81 142 0.0 0.0 0.00 0.00 0.00 75 1014.1
20260906061614 81 142 0.0 0.0 0.00 0.00 0.00 75 1014.1
20260906061114 81 143 0.0 0.0 0.00 0.00 0.00 74 1014.4
20260906060611 82 143 0.0 1.0 0.00 0.00 0.00 74 1014.3
20260906060108 82 143 0.0 1.0 0.00 0.00 0.00 73 1014.3
20260906055603 82 143 0.0 1.0 0.00 0.00 0.00 72 1014.4
20260906055058 82 124 1.0 2.0 0.00 0.00 0.00 72 1014.5
20260906054558 82 149 0.0 2.0 0.00 0.00 0.00 72 1014.4
20260906054053 82 144 0.0 1.0 0.00 0.00 0.00 72 1014.3
20260906053550 82 145 0.0 1.0 0.00 0.00 0.00 72 1014.3
20260906053045 82 110 0.0 2.0 0.00 0.00 0.00 71 1014.4
20260906052540 83 120 2.0 2.0 0.00 0.00 0.00 70 1014.2
20260906052038 83 141 2.0 2.0 0.00 0.00 0.00 70 1014.3
20260906051533 83 150 1.0 1.0 0.00 0.00 0.00 69 1014.4
20260906051028 83 133 0.0 3.0 0.00 0.00 0.00 69 1014.2
20260906050523 83 117 1.0 2.0 0.00 0.00 0.00 69 1014.4
20260906050018 83 140 0.0 0.0 0.00 0.00 0.00 69 1014.5
20260906045516 83 141 0.0 1.0 0.00 0.00 0.00 69 1014.2
20260906045012 83 148 1.0 1.0 0.00 0.00 0.00 69 1014.3
20260906044507 83 148 0.0 0.0 0.00 0.00 0.00 70 1014.3
20260906044003 83 148 0.0 0.0 0.00 0.00 0.00 69 1014.4
20260906043458 83 148 0.0 0.0 0.00 0.00 0.00 69 1014.0
20260906042954 84 148 0.0 0.0 0.00 0.00 0.00 68 1014.3
20260906042453 84 148 0.0 0.0 0.00 0.00 0.00 67 1014.2
20260906041953 85 148 0.0 0.0 0.00 0.00 0.00 66 1014.1
20260906041450 85 148 0.0 2.0 0.00 0.00 0.00 65 1014.1
20260906040949 85 137 0.0 2.0 0.00 0.00 0.00 64 1014.2
20260906040444 85 126 1.0 2.0 0.00 0.00 0.00 64 1014.1
20260906035939 86 110 4.0 4.0 0.00 0.00 0.00 63 1014.0
20260906035435 86 134 3.0 4.0 0.00 0.00 0.00 63 1014.1
20260906034931 86 145 1.0 4.0 0.00 0.00 0.00 62 1014.1
20260906034431 86 138 2.0 3.0 0.00 0.00 0.00 62 1014.0
20260906033926 86 146 2.0 4.0 0.00 0.00 0.00 61 1014.1
20260906033427 86 132 1.0 4.0 0.00 0.00 0.00 61 1014.0
20260906032922 87 158 3.0 4.0 0.00 0.00 0.00 60 1014.0
20260906032419 87 132 2.0 3.0 0.00 0.00 0.00 60 1014.2
20260906031912 87 153 2.0 3.0 0.00 0.00 0.00 59 1013.9
20260906031409 88 147 5.0 6.0 0.00 0.00 0.00 58 1013.9
20260906030909 88 115 4.0 7.0 0.00 0.00 0.00 58 1013.8
20260906030404 88 152 4.0 4.0 0.00 0.00 0.00 57 1014.1
20260906025859 88 139 2.0 4.0 0.00 0.00 0.00 57 1014.0
20260906025359 89 161 4.0 6.0 0.00 0.00 0.00 56 1013.9
20260906024857 89 131 9.0 11.0 0.00 0.00 0.00 55 1013.8
20260906024357 89 144 4.0 9.0 0.00 0.00 0.00 55 1013.8
20260906023852 89 151 3.0 6.0 0.00 0.00 0.00 54 1013.6
20260906023349 89 130 4.0 9.0 0.00 0.00 0.00 54 1013.6
20260906022848 89 149 4.0 9.0 0.00 0.00 0.00 53 1013.6
20260906022344 88 162 4.0 6.0 0.00 0.00 0.00 54 1013.6
20260906021839 89 118 6.0 9.0 0.00 0.00 0.00 54 1013.6
20260906021338 87 133 1.0 2.0 0.00 0.00 0.00 54 1013.4
20260906020834 87 98 0.0 0.0 0.00 0.00 0.00 55 1013.1
20260906020333 88 98 0.0 0.0 0.00 0.00 0.00 53 1013.0
20260906015828 88 98 0.0 0.0 0.00 0.00 0.00 53 1012.9
20260906015326 88 98 0.0 0.0 0.00 0.00 0.00 52 1012.9
20260906014826 88 98 0.0 0.0 0.00 0.00 0.00 52 1012.8
20260906014322 88 98 0.0 0.0 0.00 0.00 0.00 51 1012.7
20260906013818 88 103 0.0 0.0 0.00 0.00 0.00 51 1012.9
20260906013313 89 103 0.0 0.0 0.00 0.00 0.00 51 1012.7
20260906012808 90 98 0.0 0.0 0.00 0.00 0.00 49 1012.8
20260906012306 90 98 0.0 0.0 0.00 0.00 0.00 49 1012.6
20260906011758 91 98 0.0 1.0 0.00 0.00 0.00 47 1012.7
20260906011258 91 98 0.0 0.0 0.00 0.00 0.00 47 1012.5
20260906010754 92 98 0.0 0.0 0.00 0.00 0.00 46 1012.5
20260906010250 93 99 0.0 1.0 0.00 0.00 0.00 44 1012.6
20260906005745 93 129 1.0 2.0 0.00 0.00 0.00 44 1012.5
20260906005244 93 131 2.0 3.0 0.00 0.00 0.00 44 1012.5
20260906004743 93 129 1.0 2.0 0.00 0.00 0.00 44 1012.6
20260906004238 94 123 1.0 3.0 0.00 0.00 0.00 43 1012.2
20260906003733 94 122 2.0 3.0 0.00 0.00 0.00 43 1012.3
20260906003229 94 130 2.0 4.0 0.00 0.00 0.00 42 1012.4
20260906002729 95 108 4.0 6.0 0.00 0.00 0.00 41 1012.3
20260906002229 95 148 3.0 4.0 0.00 0.00 0.00 41 1012.4
20260906001724 96 144 3.0 6.0 0.00 0.00 0.00 40 1012.5
20260906001219 96 117 1.0 3.0 0.00 0.00 0.00 39 1012.2
20260906000714 96 66 3.0 4.0 0.00 0.00 0.00 39 1012.4
20260906000212 96 102 2.0 6.0 0.00 0.00 0.00 38 1012.1
20260905235709 97 147 6.0 7.0 0.00 0.00 0.00 38 1012.2
20260905235204 97 125 2.0 3.0 0.00 0.00 0.00 37 1012.1
20260905234659 97 135 2.0 4.0 0.00 0.00 0.00 37 1012.0
20260905234154 97 133 3.0 6.0 0.00 0.00 0.00 38 1012.0
20260905233649 98 105 2.0 6.0 0.00 0.00 0.00 37 1012.0
20260905233149 98 132 3.0 3.0 0.00 0.00 0.00 37 1012.2
20260905232644 98 140 4.0 8.0 0.00 0.00 0.00 37 1012.0
20260905232140 98 123 2.0 4.0 0.00 0.00 0.00 37 1012.0
20260905231635 98 108 2.0 4.0 0.00 0.00 0.00 37 1012.0
20260905231132 98 138 4.0 7.0 0.00 0.00 0.00 38 1012.0
20260905230627 98 101 4.0 8.0 0.00 0.00 0.00 37 1012.1
20260905230125 98 87 2.0 6.0 0.00 0.00 0.00 37 1012.0
20260905225624 99 114 2.0 7.0 0.00 0.00 0.00 36 1012.2
20260905225120 99 119 3.0 6.0 0.00 0.00 0.00 37 1012.1
20260905224619 98 90 2.0 7.0 0.00 0.00 0.00 37 1012.1
20260905224118 98 144 2.0 6.0 0.00 0.00 0.00 37 1012.1